owner,sensor,date,latitude,longitude,vertical_datum,direction_of_sea_water_velocity,sea_water_speed,upward_sea_water_velocity,qcFlag 
TABS,ioos:station:wmo:42046:1,2006-02-01T00:00:00Z,27.8903,-94.0367,2.0,323.4884922,8.000156248,-99999.0,'11133222,11111222,99999999' 
TABS,ioos:station:wmo:42046:1,2006-02-01T00:30:00Z,27.8903,-94.0367,2.0,321.0428924,6.314190368,-99999.0,'11133222,11111222,99999999' 
TABS,ioos:station:wmo:42046:1,2006-02-01T01:00:00Z,27.8903,-94.0367,2.0,320.5619512,8.390429071,-99999.0,'11133222,11111222,99999999' 
TABS,ioos:station:wmo:42046:1,2006-02-01T01:30:00Z,27.8903,-94.0367,2.0,318.5038391,8.678277479,-99999.0,'11133222,11111222,99999999' 
TABS,ioos:station:wmo:42046:1,2006-02-01T02:00:00Z,27.8903,-94.0367,2.0,314.2825743,9.596191953,-99999.0,'11133222,11111222,99999999' 
TABS,ioos:station:wmo:42046:1,2006-02-01T02:30:00Z,27.8903,-94.0367,2.0,312.8055674,15.87912466,-99999.0,'11111222,11111222,99999999' 
TABS,ioos:station:wmo:42046:1,2006-02-01T03:00:00Z,27.8903,-94.0367,2.0,319.1440868,13.89561801,-99999.0,'11111222,11111222,99999999' 
TABS,ioos:station:wmo:42046:1,2006-02-01T03:30:00Z,27.8903,-94.0367,2.0,312.9162409,14.58311695,-99999.0,'11111222,11111222,99999999' 
TABS,ioos:station:wmo:42046:1,2006-02-01T04:00:00Z,27.8903,-94.0367,2.0,308.9232902,18.70200524,-99999.0,'11111222,11111222,99999999' 
TABS,ioos:station:wmo:42046:1,2006-02-01T04:30:00Z,27.8903,-94.0367,2.0,309.085923,16.8125697,-99999.0,'11111222,11111222,99999999' 
TABS,ioos:station:wmo:42046:1,2006-02-01T05:00:00Z,27.8903,-94.0367,2.0,316.5201855,23.99350329,-99999.0,'11111222,11111222,99999999' 
TABS,ioos:station:wmo:42046:1,2006-02-01T05:30:00Z,27.8903,-94.0367,2.0,322.2333395,24.6550218,-99999.0,'11111222,11111222,99999999' 
TABS,ioos:station:wmo:42046:1,2006-02-01T06:00:00Z,27.8903,-94.0367,2.0,323.4597709,21.91836217,-99999.0,'11111222,11111222,99999999' 
TABS,ioos:station:wmo:42046:1,2006-02-01T06:30:00Z,27.8903,-94.0367,2.0,323.5780122,26.8808203,-99999.0,'11111222,11111222,99999999' 
TABS,ioos:station:wmo:42046:1,2006-02-01T07:00:00Z,27.8903,-94.0367,2.0,323.234953,27.40004562,-99999.0,'11111222,11111222,99999999' 
TABS,ioos:station:wmo:42046:1,2006-02-01T07:30:00Z,27.8903,-94.0367,2.0,327.9439917,22.66594362,-99999.0,'11111222,11111222,99999999' 
TABS,ioos:station:wmo:42046:1,2006-02-01T08:00:00Z,27.8903,-94.0367,2.0,328.3514632,21.80245858,-99999.0,'11111222,11111222,99999999' 
TABS,ioos:station:wmo:42046:1,2006-02-01T08:30:00Z,27.8903,-94.0367,2.0,335.430047,19.52823597,-99999.0,'11111222,11111222,99999999' 
TABS,ioos:station:wmo:42046:1,2006-02-01T09:00:00Z,27.8903,-94.0367,2.0,333.3073295,22.03874089,-99999.0,'11111222,11111222,99999999' 
TABS,ioos:station:wmo:42046:1,2006-02-01T09:30:00Z,27.8903,-94.0367,2.0,341.6034891,18.97999473,-99999.0,'11111222,11111222,99999999' 
TABS,ioos:station:wmo:42046:1,2006-02-01T10:00:00Z,27.8903,-94.0367,2.0,339.1036847,16.34508489,-99999.0,'11111222,11111222,99999999' 
TABS,ioos:station:wmo:42046:1,2006-02-01T10:30:00Z,27.8903,-94.0367,2.0,354.9567939,17.17650139,-99999.0,'11111222,11111222,99999999' 
TABS,ioos:station:wmo:42046:1,2006-02-01T11:00:00Z,27.8903,-94.0367,2.0,336.2793294,14.69117422,-99999.0,'11111222,11111222,99999999' 
TABS,ioos:station:wmo:42046:1,2006-02-01T11:30:00Z,27.8903,-94.0367,2.0,330.899009,11.92545177,-99999.0,'11111222,11111222,99999999' 
TABS,ioos:station:wmo:42046:1,2006-02-01T12:00:00Z,27.8903,-94.0367,2.0,329.2141432,10.51119879,-99999.0,'11111222,11111222,99999999' 
TABS,ioos:station:wmo:42046:1,2006-02-01T12:30:00Z,27.8903,-94.0367,2.0,328.2488893,8.608327364,-99999.0,'11133222,11111222,99999999' 
TABS,ioos:station:wmo:42046:1,2006-02-01T13:00:00Z,27.8903,-94.0367,2.0,328.1428506,6.157548213,-99999.0,'11133222,11111222,99999999' 
TABS,ioos:station:wmo:42046:1,2006-02-01T13:30:00Z,27.8903,-94.0367,2.0,301.6078493,8.090098887,-99999.0,'11133222,11111222,99999999' 
TABS,ioos:station:wmo:42046:1,2006-02-01T14:00:00Z,27.8903,-94.0367,2.0,331.1375545,8.700827547,-99999.0,'11133222,11111222,99999999' 
TABS,ioos:station:wmo:42046:1,2006-02-01T14:30:00Z,27.8903,-94.0367,2.0,312.4264888,9.605128838,-99999.0,'11133222,11111222,99999999' 
TABS,ioos:station:wmo:42046:1,2006-02-01T15:00:00Z,27.8903,-94.0367,2.0,326.9079731,8.773061039,-99999.0,'11133222,11111222,99999999' 
TABS,ioos:station:wmo:42046:1,2006-02-01T15:30:00Z,27.8903,-94.0367,2.0,359.8095435,6.010033278,-99999.0,'11133222,11144222,99999999' 
TABS,ioos:station:wmo:42046:1,2006-02-01T16:00:00Z,27.8903,-94.0367,2.0,24.91196413,10.54074001,-99999.0,'11111222,11111222,99999999' 
TABS,ioos:station:wmo:42046:1,2006-02-01T16:30:00Z,27.8903,-94.0367,2.0,16.34834378,10.9424129,-99999.0,'11111222,11111222,99999999' 
TABS,ioos:station:wmo:42046:1,2006-02-01T17:00:00Z,27.8903,-94.0367,2.0,14.6879332,10.45153577,-99999.0,'11111222,11111222,99999999' 
TABS,ioos:station:wmo:42046:1,2006-02-01T17:30:00Z,27.8903,-94.0367,2.0,20.17150862,15.86294424,-99999.0,'11111222,11111222,99999999' 
TABS,ioos:station:wmo:42046:1,2006-02-01T18:00:00Z,27.8903,-94.0367,2.0,23.94565685,10.2742883,-99999.0,'11111222,11111222,99999999' 
TABS,ioos:station:wmo:42046:1,2006-02-01T18:30:00Z,27.8903,-94.0367,2.0,36.93341076,14.46200885,-99999.0,'11111222,11111222,99999999' 
TABS,ioos:station:wmo:42046:1,2006-02-01T19:00:00Z,27.8903,-94.0367,2.0,29.34807394,12.71138466,-99999.0,'11111222,11111222,99999999' 
TABS,ioos:station:wmo:42046:1,2006-02-01T19:30:00Z,27.8903,-94.0367,2.0,28.75511318,17.08709455,-99999.0,'11111222,11111222,99999999' 
TABS,ioos:station:wmo:42046:1,2006-02-01T20:00:00Z,27.8903,-94.0367,2.0,49.71102591,18.51095081,-99999.0,'11111222,11111222,99999999' 
TABS,ioos:station:wmo:42046:1,2006-02-01T20:30:00Z,27.8903,-94.0367,2.0,50.83672011,15.99281088,-99999.0,'11111222,11111222,99999999' 
TABS,ioos:station:wmo:42046:1,2006-02-01T21:00:00Z,27.8903,-94.0367,2.0,39.41229402,15.10486677,-99999.0,'11111222,11111222,99999999' 
TABS,ioos:station:wmo:42046:1,2006-02-01T21:30:00Z,27.8903,-94.0367,2.0,60.1373931,15.0826556,-99999.0,'11111222,11111222,99999999' 
TABS,ioos:station:wmo:42046:1,2006-02-01T22:00:00Z,27.8903,-94.0367,2.0,58.63886517,11.12538089,-99999.0,'11111222,11111222,99999999' 
TABS,ioos:station:wmo:42046:1,2006-02-01T22:30:00Z,27.8903,-94.0367,2.0,66.77965344,13.79768096,-99999.0,'11111222,11111222,99999999' 
TABS,ioos:station:wmo:42046:1,2006-02-01T23:00:00Z,27.8903,-94.0367,2.0,63.77470447,11.31470282,-99999.0,'11111222,11111222,99999999' 
TABS,ioos:station:wmo:42046:1,2006-02-01T23:30:00Z,27.8903,-94.0367,2.0,80.53769992,13.19959469,-99999.0,'11111222,11111222,99999999' 
TABS,ioos:station:wmo:42046:1,2006-02-02T00:00:00Z,27.8903,-94.0367,2.0,80.34071399,20.56150286,-99999.0,'11111222,11111222,99999999' 
TABS,ioos:station:wmo:42046:1,2006-02-02T00:30:00Z,27.8903,-94.0367,2.0,74.10586504,19.97360759,-99999.0,'11111222,11111222,99999999' 
TABS,ioos:station:wmo:42046:1,2006-02-02T01:00:00Z,27.8903,-94.0367,2.0,94.86269665,20.17260766,-99999.0,'11111222,11111222,99999999' 
TABS,ioos:station:wmo:42046:1,2006-02-02T01:30:00Z,27.8903,-94.0367,2.0,75.99683659,16.81984839,-99999.0,'11111222,11111222,99999999' 
TABS,ioos:station:wmo:42046:1,2006-02-02T02:00:00Z,27.8903,-94.0367,2.0,68.07017614,24.01789541,-99999.0,'11111222,11111222,99999999' 
TABS,ioos:station:wmo:42046:1,2006-02-02T02:30:00Z,27.8903,-94.0367,2.0,69.10801982,23.75156837,-99999.0,'11111222,11111222,99999999' 
TABS,ioos:station:wmo:42046:1,2006-02-02T03:00:00Z,27.8903,-94.0367,2.0,69.21573455,21.4456196,-99999.0,'11111222,11111222,99999999' 
TABS,ioos:station:wmo:42046:1,2006-02-02T03:30:00Z,27.8903,-94.0367,2.0,67.35737091,21.24769399,-99999.0,'11111222,11111222,99999999' 
TABS,ioos:station:wmo:42046:1,2006-02-02T04:00:00Z,27.8903,-94.0367,2.0,70.03824819,32.16229625,-99999.0,'11111222,11111222,99999999' 
TABS,ioos:station:wmo:42046:1,2006-02-02T04:30:00Z,27.8903,-94.0367,2.0,72.47878827,33.31566899,-99999.0,'11111222,11111222,99999999' 
TABS,ioos:station:wmo:42046:1,2006-02-02T05:00:00Z,27.8903,-94.0367,2.0,71.48799637,30.55079213,-99999.0,'11111222,11111222,99999999' 
TABS,ioos:station:wmo:42046:1,2006-02-02T05:30:00Z,27.8903,-94.0367,2.0,66.66638372,27.84754567,-99999.0,'11111222,11111222,99999999' 
TABS,ioos:station:wmo:42046:1,2006-02-02T06:00:00Z,27.8903,-94.0367,2.0,68.36863023,34.4243533,-99999.0,'11111222,11111222,99999999' 
TABS,ioos:station:wmo:42046:1,2006-02-02T06:30:00Z,27.8903,-94.0367,2.0,71.47589512,30.46858218,-99999.0,'11111222,11111222,99999999' 
TABS,ioos:station:wmo:42046:1,2006-02-02T07:00:00Z,27.8903,-94.0367,2.0,67.52184055,29.86932205,-99999.0,'11111222,11111222,99999999' 
TABS,ioos:station:wmo:42046:1,2006-02-02T07:30:00Z,27.8903,-94.0367,2.0,68.91759114,34.7779039,-99999.0,'11111222,11111222,99999999' 
TABS,ioos:station:wmo:42046:1,2006-02-02T08:00:00Z,27.8903,-94.0367,2.0,71.92062356,33.12549622,-99999.0,'11111222,11111222,99999999' 
TABS,ioos:station:wmo:42046:1,2006-02-02T08:30:00Z,27.8903,-94.0367,2.0,67.65466605,36.77119117,-99999.0,'11111222,11111222,99999999' 
TABS,ioos:station:wmo:42046:1,2006-02-02T09:00:00Z,27.8903,-94.0367,2.0,71.0474587,33.25270666,-99999.0,'11111222,11111222,99999999' 
TABS,ioos:station:wmo:42046:1,2006-02-02T09:30:00Z,27.8903,-94.0367,2.0,77.48550933,34.79673117,-99999.0,'11111222,11111222,99999999' 
TABS,ioos:station:wmo:42046:1,2006-02-02T10:00:00Z,27.8903,-94.0367,2.0,75.08863524,33.18759557,-99999.0,'11111222,11111222,99999999' 
TABS,ioos:station:wmo:42046:1,2006-02-02T10:30:00Z,27.8903,-94.0367,2.0,79.13961039,32.7465189,-99999.0,'11111222,11111222,99999999' 
TABS,ioos:station:wmo:42046:1,2006-02-02T11:00:00Z,27.8903,-94.0367,2.0,80.22663985,34.5210081,-99999.0,'11111222,11111222,99999999' 
TABS,ioos:station:wmo:42046:1,2006-02-02T11:30:00Z,27.8903,-94.0367,2.0,82.20228392,34.86236509,-99999.0,'11111222,11111222,99999999' 
TABS,ioos:station:wmo:42046:1,2006-02-02T12:00:00Z,27.8903,-94.0367,2.0,84.97191424,32.74601197,-99999.0,'11111222,11111222,99999999' 
TABS,ioos:station:wmo:42046:1,2006-02-02T12:30:00Z,27.8903,-94.0367,2.0,86.83730877,31.53803577,-99999.0,'11111222,11111222,99999999' 
TABS,ioos:station:wmo:42046:1,2006-02-02T13:00:00Z,27.8903,-94.0367,2.0,86.77656362,29.87727063,-99999.0,'11111222,11111222,99999999' 
TABS,ioos:station:wmo:42046:1,2006-02-02T13:30:00Z,27.8903,-94.0367,2.0,94.93218282,27.10034871,-99999.0,'11111222,11111222,99999999' 
TABS,ioos:station:wmo:42046:1,2006-02-02T14:00:00Z,27.8903,-94.0367,2.0,96.13119083,32.39530367,-99999.0,'11111222,11111222,99999999' 
TABS,ioos:station:wmo:42046:1,2006-02-02T14:30:00Z,27.8903,-94.0367,2.0,92.5731261,28.28852241,-99999.0,'11111222,11111222,99999999' 
TABS,ioos:station:wmo:42046:1,2006-02-02T15:00:00Z,27.8903,-94.0367,2.0,96.59317205,27.26028797,-99999.0,'11111222,11111222,99999999' 
TABS,ioos:station:wmo:42046:1,2006-02-02T15:30:00Z,27.8903,-94.0367,2.0,95.8372304,28.80938215,-99999.0,'11111222,11111222,99999999' 
TABS,ioos:station:wmo:42046:1,2006-02-02T16:00:00Z,27.8903,-94.0367,2.0,93.77147236,31.317824,-99999.0,'11111222,11111222,99999999' 
TABS,ioos:station:wmo:42046:1,2006-02-02T16:30:00Z,27.8903,-94.0367,2.0,90.37124089,32.41068034,-99999.0,'11111222,11111222,99999999' 
TABS,ioos:station:wmo:42046:1,2006-02-02T17:00:00Z,27.8903,-94.0367,2.0,90.55951,30.72146481,-99999.0,'11111222,11111222,99999999' 
TABS,ioos:station:wmo:42046:1,2006-02-02T17:30:00Z,27.8903,-94.0367,2.0,98.0374866,29.75226378,-99999.0,'11111222,11111222,99999999' 
TABS,ioos:station:wmo:42046:1,2006-02-02T18:00:00Z,27.8903,-94.0367,2.0,89.62731876,29.21061793,-99999.0,'11111222,11111222,99999999' 
TABS,ioos:station:wmo:42046:1,2006-02-02T18:30:00Z,27.8903,-94.0367,2.0,86.62009911,30.02222177,-99999.0,'11111222,11111222,99999999' 
TABS,ioos:station:wmo:42046:1,2006-02-02T19:00:00Z,27.8903,-94.0367,2.0,84.36089486,29.51282603,-99999.0,'11111222,11111222,99999999' 
TABS,ioos:station:wmo:42046:1,2006-02-02T19:30:00Z,27.8903,-94.0367,2.0,81.59021249,33.02510863,-99999.0,'11111222,11111222,99999999' 
TABS,ioos:station:wmo:42046:1,2006-02-02T20:00:00Z,27.8903,-94.0367,2.0,77.5981622,34.26967318,-99999.0,'11111222,11111222,99999999' 
TABS,ioos:station:wmo:42046:1,2006-02-02T20:30:00Z,27.8903,-94.0367,2.0,81.76439993,34.556367,-99999.0,'11111222,11111222,99999999' 
TABS,ioos:station:wmo:42046:1,2006-02-02T21:00:00Z,27.8903,-94.0367,2.0,83.70978657,30.39297616,-99999.0,'11111222,11111222,99999999' 
TABS,ioos:station:wmo:42046:1,2006-02-02T21:30:00Z,27.8903,-94.0367,2.0,77.65878683,32.47032491,-99999.0,'11111222,11111222,99999999' 
TABS,ioos:station:wmo:42046:1,2006-02-02T22:00:00Z,27.8903,-94.0367,2.0,71.9617937,31.97139346,-99999.0,'11111222,11111222,99999999' 
TABS,ioos:station:wmo:42046:1,2006-02-02T22:30:00Z,27.8903,-94.0367,2.0,80.15693596,32.40704399,-99999.0,'11111222,11111222,99999999' 
TABS,ioos:station:wmo:42046:1,2006-02-02T23:00:00Z,27.8903,-94.0367,2.0,77.5085599,29.95918724,-99999.0,'11111222,11111222,99999999' 
TABS,ioos:station:wmo:42046:1,2006-02-02T23:30:00Z,27.8903,-94.0367,2.0,80.24612952,30.04430395,-99999.0,'11111222,11111222,99999999' 
TABS,ioos:station:wmo:42046:1,2006-02-03T00:00:00Z,27.8903,-94.0367,2.0,79.12054306,25.06042697,-99999.0,'11111222,11111222,99999999' 
TABS,ioos:station:wmo:42046:1,2006-02-03T00:30:00Z,27.8903,-94.0367,2.0,86.46854465,25.48839932,-99999.0,'11111222,11111222,99999999' 
TABS,ioos:station:wmo:42046:1,2006-02-03T01:00:00Z,27.8903,-94.0367,2.0,92.72879975,21.84477054,-99999.0,'11111222,11111222,99999999' 
TABS,ioos:station:wmo:42046:1,2006-02-03T01:30:00Z,27.8903,-94.0367,2.0,90.21764623,21.06015195,-99999.0,'11111222,11111222,99999999' 
TABS,ioos:station:wmo:42046:1,2006-02-03T02:00:00Z,27.8903,-94.0367,2.0,99.5686709,22.13800578,-99999.0,'11111222,11111222,99999999' 
TABS,ioos:station:wmo:42046:1,2006-02-03T02:30:00Z,27.8903,-94.0367,2.0,86.9116944,21.53127028,-99999.0,'11111222,11111222,99999999' 
TABS,ioos:station:wmo:42046:1,2006-02-03T03:00:00Z,27.8903,-94.0367,2.0,91.75425263,20.57964528,-99999.0,'11111222,11111222,99999999' 
TABS,ioos:station:wmo:42046:1,2006-02-03T03:30:00Z,27.8903,-94.0367,2.0,92.06846958,17.7315538,-99999.0,'11111222,11111222,99999999' 
TABS,ioos:station:wmo:42046:1,2006-02-03T04:00:00Z,27.8903,-94.0367,2.0,83.89972206,18.72603802,-99999.0,'11111222,11111222,99999999' 
TABS,ioos:station:wmo:42046:1,2006-02-03T04:30:00Z,27.8903,-94.0367,2.0,91.52801855,15.37546747,-99999.0,'11111222,11111222,99999999' 
TABS,ioos:station:wmo:42046:1,2006-02-03T05:00:00Z,27.8903,-94.0367,2.0,86.64835283,15.90720906,-99999.0,'11111222,11111222,99999999' 
TABS,ioos:station:wmo:42046:1,2006-02-03T05:30:00Z,27.8903,-94.0367,2.0,77.80810642,17.70942404,-99999.0,'11111222,11111222,99999999' 
TABS,ioos:station:wmo:42046:1,2006-02-03T06:00:00Z,27.8903,-94.0367,2.0,86.05949371,12.65992891,-99999.0,'11111222,11111222,99999999' 
TABS,ioos:station:wmo:42046:1,2006-02-03T06:30:00Z,27.8903,-94.0367,2.0,70.84664708,12.8619944,-99999.0,'11111222,11111222,99999999' 
TABS,ioos:station:wmo:42046:1,2006-02-03T07:00:00Z,27.8903,-94.0367,2.0,62.74686104,14.52207285,-99999.0,'11111222,11111222,99999999' 
TABS,ioos:station:wmo:42046:1,2006-02-03T07:30:00Z,27.8903,-94.0367,2.0,61.7851125,15.37710636,-99999.0,'11111222,11111222,99999999' 
TABS,ioos:station:wmo:42046:1,2006-02-03T08:00:00Z,27.8903,-94.0367,2.0,56.43847661,16.08079911,-99999.0,'11111222,11111222,99999999' 
TABS,ioos:station:wmo:42046:1,2006-02-03T08:30:00Z,27.8903,-94.0367,2.0,60.34096012,17.39961206,-99999.0,'11111222,11111222,99999999' 
TABS,ioos:station:wmo:42046:1,2006-02-03T09:00:00Z,27.8903,-94.0367,2.0,46.26210204,19.58453727,-99999.0,'11111222,11111222,99999999' 
TABS,ioos:station:wmo:42046:1,2006-02-03T09:30:00Z,27.8903,-94.0367,2.0,39.30971419,19.96809956,-99999.0,'11111222,11111222,99999999' 
TABS,ioos:station:wmo:42046:1,2006-02-03T10:00:00Z,27.8903,-94.0367,2.0,42.86259799,20.09581548,-99999.0,'11111222,11111222,99999999' 
TABS,ioos:station:wmo:42046:1,2006-02-03T10:30:00Z,27.8903,-94.0367,2.0,37.11133155,21.84419374,-99999.0,'11111222,11111222,99999999' 
TABS,ioos:station:wmo:42046:1,2006-02-03T11:00:00Z,27.8903,-94.0367,2.0,32.64435024,17.77832951,-99999.0,'11111222,11111222,99999999' 
TABS,ioos:station:wmo:42046:1,2006-02-03T11:30:00Z,27.8903,-94.0367,2.0,38.86888954,20.12624655,-99999.0,'11111222,11111222,99999999' 
TABS,ioos:station:wmo:42046:1,2006-02-03T12:00:00Z,27.8903,-94.0367,2.0,29.94277374,22.99989783,-99999.0,'11111222,11111222,99999999' 
TABS,ioos:station:wmo:42046:1,2006-02-03T12:30:00Z,27.8903,-94.0367,2.0,53.79576514,19.28330107,-99999.0,'11111222,11111222,99999999' 
TABS,ioos:station:wmo:42046:1,2006-02-03T13:00:00Z,27.8903,-94.0367,2.0,53.94580428,21.91822073,-99999.0,'11111222,11111222,99999999' 
TABS,ioos:station:wmo:42046:1,2006-02-03T13:30:00Z,27.8903,-94.0367,2.0,55.54939811,21.93755228,-99999.0,'11111222,11111222,99999999' 
TABS,ioos:station:wmo:42046:1,2006-02-03T14:00:00Z,27.8903,-94.0367,2.0,63.5974273,20.50929789,-99999.0,'11111222,11111222,99999999' 
TABS,ioos:station:wmo:42046:1,2006-02-03T14:30:00Z,27.8903,-94.0367,2.0,58.62372834,25.00685706,-99999.0,'11111222,11111222,99999999' 
TABS,ioos:station:wmo:42046:1,2006-02-03T15:00:00Z,27.8903,-94.0367,2.0,63.22238892,20.48699588,-99999.0,'11111222,11111222,99999999' 
TABS,ioos:station:wmo:42046:1,2006-02-03T15:30:00Z,27.8903,-94.0367,2.0,61.23964827,20.43029613,-99999.0,'11111222,11111222,99999999' 
TABS,ioos:station:wmo:42046:1,2006-02-03T16:00:00Z,27.8903,-94.0367,2.0,63.75501376,17.61601828,-99999.0,'11111222,11111222,99999999' 
TABS,ioos:station:wmo:42046:1,2006-02-03T16:30:00Z,27.8903,-94.0367,2.0,54.72413487,22.64876376,-99999.0,'11111222,11111222,99999999' 
TABS,ioos:station:wmo:42046:1,2006-02-03T17:00:00Z,27.8903,-94.0367,2.0,47.4246246,22.73261973,-99999.0,'11111222,11111222,99999999' 
TABS,ioos:station:wmo:42046:1,2006-02-03T17:30:00Z,27.8903,-94.0367,2.0,50.8005861,19.73030664,-99999.0,'11111222,11111222,99999999' 
TABS,ioos:station:wmo:42046:1,2006-02-03T18:00:00Z,27.8903,-94.0367,2.0,58.24563915,18.39325963,-99999.0,'11111222,11111222,99999999' 
TABS,ioos:station:wmo:42046:1,2006-02-03T18:30:00Z,27.8903,-94.0367,2.0,65.77580292,22.44649193,-99999.0,'11111222,11111222,99999999' 
TABS,ioos:station:wmo:42046:1,2006-02-03T19:00:00Z,27.8903,-94.0367,2.0,56.41437479,19.79450934,-99999.0,'11111222,11111222,99999999' 
TABS,ioos:station:wmo:42046:1,2006-02-03T19:30:00Z,27.8903,-94.0367,2.0,64.50708503,19.12172848,-99999.0,'11111222,11111222,99999999' 
TABS,ioos:station:wmo:42046:1,2006-02-03T20:00:00Z,27.8903,-94.0367,2.0,65.1904007,19.70900809,-99999.0,'11111222,11111222,99999999' 
TABS,ioos:station:wmo:42046:1,2006-02-03T20:30:00Z,27.8903,-94.0367,2.0,70.91746951,20.98305269,-99999.0,'11111222,11111222,99999999' 
TABS,ioos:station:wmo:42046:1,2006-02-03T21:00:00Z,27.8903,-94.0367,2.0,71.84503821,19.4166166,-99999.0,'11111222,11111222,99999999' 
TABS,ioos:station:wmo:42046:1,2006-02-03T21:30:00Z,27.8903,-94.0367,2.0,84.83957192,16.78804634,-99999.0,'11111222,11111222,99999999' 
TABS,ioos:station:wmo:42046:1,2006-02-03T22:00:00Z,27.8903,-94.0367,2.0,82.66267183,17.06977739,-99999.0,'11111222,11111222,99999999' 
TABS,ioos:station:wmo:42046:1,2006-02-03T22:30:00Z,27.8903,-94.0367,2.0,97.37269007,18.93655988,-99999.0,'11111222,11111222,99999999' 
TABS,ioos:station:wmo:42046:1,2006-02-03T23:00:00Z,27.8903,-94.0367,2.0,93.58205157,18.72658538,-99999.0,'11111222,11111222,99999999' 
TABS,ioos:station:wmo:42046:1,2006-02-03T23:30:00Z,27.8903,-94.0367,2.0,108.6420735,20.11537969,-99999.0,'11111222,11111222,99999999' 
TABS,ioos:station:wmo:42046:1,2006-02-04T00:00:00Z,27.8903,-94.0367,2.0,139.8504077,25.17122365,-99999.0,'11111222,11111222,99999999' 
TABS,ioos:station:wmo:42046:1,2006-02-04T00:30:00Z,27.8903,-94.0367,2.0,139.7191036,24.23693462,-99999.0,'11111222,11111222,99999999' 
TABS,ioos:station:wmo:42046:1,2006-02-04T01:00:00Z,27.8903,-94.0367,2.0,145.3259155,20.51306413,-99999.0,'11111222,11111222,99999999' 
TABS,ioos:station:wmo:42046:1,2006-02-04T01:30:00Z,27.8903,-94.0367,2.0,150.4593993,19.81591532,-99999.0,'11111222,11111222,99999999' 
TABS,ioos:station:wmo:42046:1,2006-02-04T02:00:00Z,27.8903,-94.0367,2.0,152.4444293,25.35632663,-99999.0,'11111222,11111222,99999999' 
TABS,ioos:station:wmo:42046:1,2006-02-04T02:30:00Z,27.8903,-94.0367,2.0,149.4640317,18.59954032,-99999.0,'11111222,11111222,99999999' 
TABS,ioos:station:wmo:42046:1,2006-02-04T03:00:00Z,27.8903,-94.0367,2.0,159.8035188,21.81104766,-99999.0,'11111222,11111222,99999999' 
TABS,ioos:station:wmo:42046:1,2006-02-04T03:30:00Z,27.8903,-94.0367,2.0,167.5907414,13.49527325,-99999.0,'11111222,11111222,99999999' 
TABS,ioos:station:wmo:42046:1,2006-02-04T04:00:00Z,27.8903,-94.0367,2.0,190.0524837,14.83779633,-99999.0,'11111222,11111222,99999999' 
TABS,ioos:station:wmo:42046:1,2006-02-04T04:30:00Z,27.8903,-94.0367,2.0,155.1065006,8.124856922,-99999.0,'11133222,11111222,99999999' 
TABS,ioos:station:wmo:42046:1,2006-02-04T05:00:00Z,27.8903,-94.0367,2.0,168.9333972,9.690185757,-99999.0,'11133222,11111222,99999999' 
TABS,ioos:station:wmo:42046:1,2006-02-04T05:30:00Z,27.8903,-94.0367,2.0,152.5718867,8.314643709,-99999.0,'11133222,11111222,99999999' 
TABS,ioos:station:wmo:42046:1,2006-02-04T06:00:00Z,27.8903,-94.0367,2.0,175.9294327,2.676751763,-99999.0,'11133222,11111222,99999999' 
TABS,ioos:station:wmo:42046:1,2006-02-04T06:30:00Z,27.8903,-94.0367,2.0,130.798317,9.458223935,-99999.0,'11133222,11111222,99999999' 
TABS,ioos:station:wmo:42046:1,2006-02-04T07:00:00Z,27.8903,-94.0367,2.0,140.0490494,7.070219233,-99999.0,'11133222,11111222,99999999' 
TABS,ioos:station:wmo:42046:1,2006-02-04T07:30:00Z,27.8903,-94.0367,2.0,145.0582579,2.79358193,-99999.0,'11133222,11111222,99999999' 
TABS,ioos:station:wmo:42046:1,2006-02-04T08:00:00Z,27.8903,-94.0367,2.0,357.300647,5.095655012,-99999.0,'11133222,11111222,99999999' 
TABS,ioos:station:wmo:42046:1,2006-02-04T08:30:00Z,27.8903,-94.0367,2.0,265.0082575,2.298717033,-99999.0,'11133222,11111222,99999999' 
TABS,ioos:station:wmo:42046:1,2006-02-04T09:00:00Z,27.8903,-94.0367,2.0,104.5020186,5.071587523,-99999.0,'11133222,11111222,99999999' 
TABS,ioos:station:wmo:42046:1,2006-02-04T09:30:00Z,27.8903,-94.0367,2.0,64.031819,4.293483434,-99999.0,'11133222,11111222,99999999' 
TABS,ioos:station:wmo:42046:1,2006-02-04T10:00:00Z,27.8903,-94.0367,2.0,350.228486,7.305997536,-99999.0,'11133222,11111222,99999999' 
TABS,ioos:station:wmo:42046:1,2006-02-04T10:30:00Z,27.8903,-94.0367,2.0,38.17168158,8.980317366,-99999.0,'11133222,11111222,99999999' 
TABS,ioos:station:wmo:42046:1,2006-02-04T11:00:00Z,27.8903,-94.0367,2.0,54.9744916,5.592897281,-99999.0,'11133222,11111222,99999999' 
TABS,ioos:station:wmo:42046:1,2006-02-04T11:30:00Z,27.8903,-94.0367,2.0,54.69693951,4.827804884,-99999.0,'11133222,11111222,99999999' 
TABS,ioos:station:wmo:42046:1,2006-02-04T12:00:00Z,27.8903,-94.0367,2.0,9.085701412,4.749589456,-99999.0,'11133222,11111222,99999999' 
TABS,ioos:station:wmo:42046:1,2006-02-04T12:30:00Z,27.8903,-94.0367,2.0,40.14982258,10.87180758,-99999.0,'11111222,11111222,99999999' 
TABS,ioos:station:wmo:42046:1,2006-02-04T13:00:00Z,27.8903,-94.0367,2.0,24.5731106,7.719099688,-99999.0,'11133222,11111222,99999999' 
TABS,ioos:station:wmo:42046:1,2006-02-04T13:30:00Z,27.8903,-94.0367,2.0,61.88431806,10.90706193,-99999.0,'11111222,11111222,99999999' 
TABS,ioos:station:wmo:42046:1,2006-02-04T14:00:00Z,27.8903,-94.0367,2.0,44.14054816,10.84116691,-99999.0,'11111222,11111222,99999999' 
TABS,ioos:station:wmo:42046:1,2006-02-04T14:30:00Z,27.8903,-94.0367,2.0,57.50791926,10.48057727,-99999.0,'11111222,11111222,99999999' 
TABS,ioos:station:wmo:42046:1,2006-02-04T15:00:00Z,27.8903,-94.0367,2.0,62.85308072,14.53071918,-99999.0,'11111222,11111222,99999999' 
TABS,ioos:station:wmo:42046:1,2006-02-04T15:30:00Z,27.8903,-94.0367,2.0,51.18342672,16.54354859,-99999.0,'11111222,11111222,99999999' 
TABS,ioos:station:wmo:42046:1,2006-02-04T16:00:00Z,27.8903,-94.0367,2.0,49.67731153,18.29721564,-99999.0,'11111222,11111222,99999999' 